When you browse on this site, cookies collect data to enhance your experience and personalize the content and advertising you see.
Visit our Privacy Policy to learn more. By continuing to use the site, you agree to this use of cookies and data.
  • In Schweiz
  • Länderverzeichnis
  • Für 7 Tage
  • Wassertemperatur
  • Wetterkarte
  • Widgets
  • user-avatar
    Anmelden

    Stündliche Wetter Buenos Aires

    Heute, 25 Mai, Montag

    Zeit Temperatur Niederschläge Wind Luftdruck Luftfeuchtigkeit
    00:00 +16°C° 0 mm 8 m/S 754 mmHg 38%
    01:00 +16°C° 0 mm 7 m/S 754 mmHg 38%
    02:00 +15°C° 0 mm 7 m/S 755 mmHg 37%
    03:00 +15°C° 0 mm 7 m/S 755 mmHg 44%
    04:00 +13°C° 0 mm 8 m/S 755 mmHg 51%
    05:00 +12°C° 0 mm 8 m/S 756 mmHg 59%
    06:00 +12°C° 0 mm 8 m/S 756 mmHg 60%
    07:00 +12°C° 0 mm 8 m/S 757 mmHg 61%
    08:00 +12°C° 0 mm 9 m/S 757 mmHg 61%
    09:00 +13°C° 0 mm 8 m/S 758 mmHg 59%
    10:00 +16°C° 0 mm 8 m/S 758 mmHg 57%
    11:00 +17°C° 0 mm 8 m/S 759 mmHg 54%
    12:00 +17°C° 0 mm 7 m/S 759 mmHg 53%
    13:00 +17°C° 0 mm 7 m/S 759 mmHg 52%
    14:00 +17°C° 0 mm 7 m/S 759 mmHg 52%
    15:00 +17°C° 0 mm 7 m/S 760 mmHg 53%
    16:00 +16°C° 0 mm 6 m/S 760 mmHg 54%
    17:00 +16°C° 0 mm 6 m/S 760 mmHg 55%
    18:00 +15°C° 0 mm 5 m/S 760 mmHg 58%
    19:00 +15°C° 0 mm 5 m/S 761 mmHg 60%
    20:00 +14°C° 0 mm 4 m/S 762 mmHg 62%
    21:00 +14°C° 0 mm 5 m/S 762 mmHg 65%
    22:00 +13°C° 0 mm 5 m/S 762 mmHg 67%
    23:00 +13°C° 0 mm 5 m/S 762 mmHg 69%

    Morgen, 26 Mai, Dienstag

    Zeit Temperatur Niederschläge Wind Luftdruck Luftfeuchtigkeit
    00:00 +12°C° 0 mm 4 m/S 762 mmHg 71%
    01:00 +12°C° 0 mm 4 m/S 762 mmHg 73%
    02:00 +11°C° 0 mm 3 m/S 762 mmHg 75%
    03:00 +11°C° 0 mm 3 m/S 762 mmHg 76%
    04:00 +11°C° 0 mm 3 m/S 762 mmHg 77%
    05:00 +10°C° 0 mm 3 m/S 762 mmHg 78%
    06:00 +10°C° 0 mm 3 m/S 762 mmHg 77%
    07:00 +10°C° 0 mm 3 m/S 762 mmHg 76%
    08:00 +10°C° 0 mm 2 m/S 763 mmHg 75%
    09:00 +13°C° 0 mm 2 m/S 763 mmHg 69%
    10:00 +15°C° 0 mm 2 m/S 763 mmHg 62%
    11:00 +16°C° 0 mm 2 m/S 762 mmHg 56%
    12:00 +17°C° 0 mm 2 m/S 762 mmHg 51%
    13:00 +19°C° 0 mm 1 m/S 761 mmHg 46%
    14:00 +20°C° 0 mm 1 m/S 761 mmHg 41%
    15:00 +19°C° 0 mm 1 m/S 761 mmHg 43%
    16:00 +18°C° 0 mm 1 m/S 761 mmHg 46%
    17:00 +16°C° 0 mm 1 m/S 761 mmHg 48%
    18:00 +16°C° 0 mm 1 m/S 761 mmHg 50%
    19:00 +16°C° 0 mm 1 m/S 761 mmHg 52%
    20:00 +15°C° 0 mm 1 m/S 761 mmHg 54%
    21:00 +15°C° 0 mm 2 m/S 761 mmHg 56%
    22:00 +15°C° 0 mm 2 m/S 761 mmHg 57%
    23:00 +13°C° 0 mm 3 m/S 761 mmHg 58%

    übermorgen, 27 Mai, Mittwoch

    Zeit Temperatur Niederschläge Wind Luftdruck Luftfeuchtigkeit
    00:00 +13°C° 0 mm 3 m/S 761 mmHg 60%
    01:00 +13°C° 0 mm 3 m/S 761 mmHg 62%
    02:00 +12°C° 0 mm 3 m/S 761 mmHg 64%
    03:00 +12°C° 0 mm 3 m/S 761 mmHg 67%
    04:00 +12°C° 0 mm 3 m/S 761 mmHg 69%
    05:00 +12°C° 0 mm 3 m/S 761 mmHg 72%
    06:00 +12°C° 0 mm 3 m/S 761 mmHg 72%
    07:00 +12°C° 0 mm 3 m/S 762 mmHg 72%
    08:00 +12°C° 0 mm 3 m/S 762 mmHg 71%
    09:00 +14°C° 0 mm 3 m/S 762 mmHg 65%
    10:00 +16°C° 0 mm 3 m/S 762 mmHg 59%
    11:00 +18°C° 0 mm 3 m/S 762 mmHg 53%
    12:00 +19°C° 0 mm 3 m/S 762 mmHg 50%
    13:00 +20°C° 0 mm 3 m/S 761 mmHg 47%
    14:00 +20°C° 0 mm 3 m/S 760 mmHg 45%
    15:00 +20°C° 0 mm 4 m/S 760 mmHg 49%
    16:00 +19°C° 0 mm 4 m/S 760 mmHg 52%
    17:00 +18°C° 0 mm 4 m/S 760 mmHg 56%
    18:00 +18°C° 0 mm 4 m/S 760 mmHg 60%
    19:00 +17°C° 0 mm 4 m/S 760 mmHg 63%
    20:00 +17°C° 0 mm 4 m/S 760 mmHg 67%
    21:00 +16°C° 0 mm 5 m/S 760 mmHg 69%
    22:00 +15°C° 0 mm 5 m/S 760 mmHg 71%
    23:00 +15°C° 0 mm 5 m/S 760 mmHg 73%

    28 Mai, Donnerstag

    Zeit Temperatur Niederschläge Wind Luftdruck Luftfeuchtigkeit
    00:00 +15°C° 0 mm 5 m/S 760 mmHg 74%
    01:00 +15°C° 0 mm 5 m/S 760 mmHg 74%
    02:00 +14°C° 0 mm 6 m/S 760 mmHg 74%
    03:00 +14°C° 0 mm 5 m/S 760 mmHg 75%
    04:00 +14°C° 0 mm 5 m/S 759 mmHg 77%
    05:00 +14°C° 0 mm 5 m/S 759 mmHg 78%
    06:00 +14°C° 0 mm 5 m/S 759 mmHg 78%
    07:00 +14°C° 0 mm 5 m/S 759 mmHg 77%
    08:00 +14°C° 0 mm 5 m/S 759 mmHg 76%
    09:00 +15°C° 0 mm 5 m/S 759 mmHg 68%
    10:00 +17°C° 0 mm 5 m/S 759 mmHg 61%
    11:00 +19°C° 0 mm 5 m/S 759 mmHg 53%
    12:00 +20°C° 0 mm 5 m/S 758 mmHg 50%
    13:00 +21°C° 0 mm 4 m/S 757 mmHg 46%
    14:00 +22°C° 0 mm 4 m/S 756 mmHg 43%
    15:00 +21°C° 0 mm 4 m/S 756 mmHg 48%
    16:00 +21°C° 0 mm 4 m/S 756 mmHg 53%
    17:00 +20°C° 0 mm 4 m/S 756 mmHg 58%
    18:00 +19°C° 0 mm 4 m/S 756 mmHg 61%
    19:00 +19°C° 0 mm 4 m/S 756 mmHg 65%
    20:00 +18°C° 0 mm 4 m/S 756 mmHg 68%
    21:00 +17°C° 0 mm 5 m/S 756 mmHg 69%
    22:00 +17°C° 0 mm 6 m/S 756 mmHg 69%
    23:00 +17°C° 0 mm 6 m/S 756 mmHg 70%

    29 Mai, Freitag

    Zeit Temperatur Niederschläge Wind Luftdruck Luftfeuchtigkeit
    00:00 +17°C° 0 mm 6 m/S 756 mmHg 72%
    01:00 +16°C° 0 mm 5 m/S 756 mmHg 74%
    02:00 +16°C° 0 mm 5 m/S 756 mmHg 76%
    03:00 +15°C° 0 mm 5 m/S 756 mmHg 77%
    04:00 +15°C° 0 mm 4 m/S 756 mmHg 79%
    05:00 +15°C° 0 mm 4 m/S 756 mmHg 81%
    06:00 +15°C° 0 mm 4 m/S 756 mmHg 82%
    07:00 +15°C° 0 mm 4 m/S 756 mmHg 82%
    08:00 +15°C° 0 mm 4 m/S 756 mmHg 83%
    09:00 +17°C° 0 mm 4 m/S 756 mmHg 77%
    10:00 +17°C° 0 mm 3 m/S 757 mmHg 71%
    11:00 +18°C° 0 mm 3 m/S 757 mmHg 65%
    12:00 +19°C° 0 mm 3 m/S 757 mmHg 58%
    13:00 +19°C° 0 mm 4 m/S 757 mmHg 50%
    14:00 +20°C° 0 mm 4 m/S 756 mmHg 43%
    15:00 +17°C° 0 mm 5 m/S 757 mmHg 37%
    16:00 +16°C° 0 mm 5 m/S 758 mmHg 31%
    17:00 +15°C° 0 mm 6 m/S 758 mmHg 26%
    18:00 +15°C° 0 mm 6 m/S 759 mmHg 26%
    19:00 +14°C° 0 mm 6 m/S 759 mmHg 27%
    20:00 +13°C° 0 mm 6 m/S 759 mmHg 27%
    21:00 +13°C° 0 mm 6 m/S 760 mmHg 26%
    22:00 +13°C° 0 mm 5 m/S 760 mmHg 24%
    23:00 +13°C° 0 mm 5 m/S 760 mmHg 22%

    30 Mai, Samstag

    Zeit Temperatur Niederschläge Wind Luftdruck Luftfeuchtigkeit
    00:00 +12°C° 0 mm 5 m/S 760 mmHg 25%
    01:00 +10°C° 0 mm 5 m/S 761 mmHg 27%
    02:00 +10°C° 0 mm 5 m/S 761 mmHg 29%
    03:00 +9°C° 0 mm 5 m/S 761 mmHg 37%
    04:00 +8°C° 0 mm 5 m/S 761 mmHg 45%
    05:00 +8°C° 0 mm 5 m/S 761 mmHg 53%
    06:00 +7°C° 0 mm 5 m/S 762 mmHg 55%
    07:00 +7°C° 0 mm 4 m/S 762 mmHg 57%
    08:00 +7°C° 0 mm 4 m/S 763 mmHg 59%
    09:00 +8°C° 0 mm 4 m/S 763 mmHg 57%
    10:00 +11°C° 0 mm 4 m/S 763 mmHg 54%
    11:00 +12°C° 0 mm 3 m/S 763 mmHg 52%
    12:00 +12°C° 0 mm 4 m/S 762 mmHg 49%
    13:00 +13°C° 0 mm 4 m/S 762 mmHg 47%
    14:00 +13°C° 0 mm 5 m/S 762 mmHg 45%
    15:00 +13°C° 0 mm 5 m/S 762 mmHg 45%
    16:00 +12°C° 0 mm 5 m/S 762 mmHg 46%
    17:00 +12°C° 0 mm 4 m/S 762 mmHg 46%
    18:00 +10°C° 0 mm 5 m/S 763 mmHg 46%
    19:00 +9°C° 0 mm 5 m/S 763 mmHg 46%
    20:00 +9°C° 0 mm 5 m/S 763 mmHg 45%
    21:00 +8°C° 0 mm 5 m/S 764 mmHg 48%
    22:00 +8°C° 0 mm 5 m/S 764 mmHg 51%
    23:00 +8°C° 0 mm 5 m/S 764 mmHg 53%
    Mehr zeigen